TimeGMT,TemperatureF,Dew PointF,Humidity,Sea Level PressureIn,VisibilityMPH,Wind Direction,Wind SpeedMPH,Gust SpeedMPH,PrecipitationIn,Events,Conditions,WindDirDegrees,DateUTC
12:20 AM,32.0,32.0,100,29.74,1.1,ENE,5.8,-,N/A,Snow,Light Snow,60,2013-01-23 00:20:00
12:50 AM,33.8,32.0,93,29.74,1.1,NE,6.9,-,N/A,Snow,Light Snow,40,2013-01-23 00:50:00
1:20 AM,33.8,32.0,93,29.74,1.4,ENE,6.9,-,N/A,Snow,Light Snow,60,2013-01-23 01:20:00
1:50 AM,32.0,32.0,100,29.74,1.4,NE,6.9,-,N/A,Snow,Light Snow,50,2013-01-23 01:50:00
2:20 AM,32.0,32.0,100,29.74,1.2,ENE,8.1,-,N/A,Snow,Light Snow,60,2013-01-23 02:20:00
2:50 AM,32.0,32.0,100,29.74,1.6,ENE,5.8,-,N/A,Snow,Light Snow,60,2013-01-23 02:50:00
3:20 AM,32.0,32.0,100,29.77,1.2,ENE,5.8,-,N/A,Snow,Light Snow,60,2013-01-23 03:20:00
3:50 AM,32.0,32.0,100,29.77,-9999.0,ENE,5.8,-,N/A,Snow,Light Snow,60,2013-01-23 03:50:00
4:20 AM,32.0,30.2,93,29.77,3.1,ENE,5.8,-,N/A,Snow,Light Snow,60,2013-01-23 04:20:00
4:50 AM,32.0,30.2,93,29.77,1.4,NE,4.6,-,N/A,Snow,Light Snow,50,2013-01-23 04:50:00
5:20 AM,32.0,30.2,93,29.77,1.6,NE,4.6,-,N/A,Snow,Light Snow,50,2013-01-23 05:20:00
5:50 AM,32.0,30.2,93,29.77,1.5,NE,4.6,-,N/A,Snow,Light Snow,40,2013-01-23 05:50:00
6:20 AM,32.0,30.2,93,29.77,1.6,NE,4.6,-,N/A,Snow,Light Snow,50,2013-01-23 06:20:00
6:50 AM,30.2,30.2,100,29.77,1.6,ENE,5.8,-,N/A,Snow,Light Snow,60,2013-01-23 06:50:00
7:20 AM,30.2,30.2,100,29.77,-9999.0,ENE,5.8,-,N/A,Snow,Light Snow,60,2013-01-23 07:20:00
7:50 AM,30.2,30.2,100,29.77,3.1,ENE,3.5,-,N/A,Snow,Light Snow,60,2013-01-23 07:50:00
8:20 AM,30.2,30.2,100,29.77,-9999.0,NE,4.6,-,N/A,,Scattered Clouds,40,2013-01-23 08:20:00
8:50 AM,30.2,30.2,100,29.80,-9999.0,ENE,4.6,-,N/A,,Scattered Clouds,70,2013-01-23 08:50:00
9:20 AM,30.2,30.2,100,29.80,3.1,East,4.6,-,N/A,Snow,Light Snow,80,2013-01-23 09:20:00
9:50 AM,32.0,30.2,93,29.80,3.7,East,4.6,-,N/A,Snow,Light Snow,80,2013-01-23 09:50:00
10:20 AM,32.0,28.4,87,29.80,3.7,East,5.8,-,N/A,Snow,Light Snow,80,2013-01-23 10:20:00
10:50 AM,32.0,28.4,87,29.80,3.7,ENE,5.8,-,N/A,Snow,Light Snow,70,2013-01-23 10:50:00
11:20 AM,32.0,28.4,87,29.80,-9999.0,ENE,5.8,-,N/A,Snow,Light Snow,60,2013-01-23 11:20:00
11:50 AM,32.0,28.4,87,29.77,-9999.0,ENE,5.8,-,N/A,Snow,Light Snow,70,2013-01-23 11:50:00
12:20 PM,32.0,28.4,87,29.77,3.7,East,6.9,-,N/A,,Mostly Cloudy,80,2013-01-23 12:20:00
12:50 PM,32.0,28.4,87,29.77,5.0,East,8.1,-,N/A,,Mostly Cloudy,80,2013-01-23 12:50:00
1:20 PM,32.0,28.4,87,29.77,5.0,East,8.1,-,N/A,,Overcast,80,2013-01-23 13:20:00
1:50 PM,32.0,28.4,87,29.77,5.0,ENE,9.2,-,N/A,,Mostly Cloudy,70,2013-01-23 13:50:00
2:20 PM,32.0,28.4,87,29.77,5.0,ENE,6.9,-,N/A,,Mostly Cloudy,60,2013-01-23 14:20:00
2:50 PM,32.0,28.4,87,29.77,4.3,ENE,6.9,-,N/A,,Mostly Cloudy,70,2013-01-23 14:50:00
3:20 PM,32.0,28.4,87,29.77,4.3,ENE,8.1,-,N/A,,Overcast,70,2013-01-23 15:20:00
3:50 PM,32.0,28.4,87,29.77,4.3,East,9.2,-,N/A,Snow,Light Snow,80,2013-01-23 15:50:00
4:20 PM,32.0,28.4,87,29.77,4.3,ENE,6.9,-,N/A,Snow,Light Snow,70,2013-01-23 16:20:00
4:50 PM,32.0,28.4,87,29.77,3.7,ENE,8.1,-,N/A,Snow,Light Snow,70,2013-01-23 16:50:00
5:20 PM,30.2,28.4,93,29.77,1.7,ENE,6.9,-,N/A,Snow,Snow,70,2013-01-23 17:20:00
5:50 PM,30.2,30.2,100,29.77,2.5,ENE,9.2,-,N/A,Snow,Light Snow,60,2013-01-23 17:50:00
6:20 PM,30.2,30.2,100,29.77,2.5,NE,6.9,-,N/A,,Mostly Cloudy,50,2013-01-23 18:20:00
6:50 PM,30.2,30.2,100,29.77,2.8,NE,6.9,-,N/A,,Mostly Cloudy,50,2013-01-23 18:50:00
7:20 PM,30.2,30.2,100,29.80,2.5,ENE,5.8,-,N/A,,Mostly Cloudy,60,2013-01-23 19:20:00
7:50 PM,30.2,28.4,93,29.77,2.8,ENE,6.9,-,N/A,,Haze,60,2013-01-23 19:50:00
8:20 PM,30.2,28.4,93,29.80,2.5,ENE,5.8,-,N/A,,Haze,60,2013-01-23 20:20:00
8:50 PM,30.2,28.4,93,29.80,2.5,ENE,5.8,-,N/A,,Haze,60,2013-01-23 20:50:00
9:20 PM,30.2,30.2,100,29.80,2.5,ENE,6.9,-,N/A,,Haze,60,2013-01-23 21:20:00
9:50 PM,32.0,30.2,93,29.83,3.7,ENE,6.9,-,N/A,,Scattered Clouds,60,2013-01-23 21:50:00
10:20 PM,32.0,28.4,87,29.83,3.7,ENE,6.9,-,N/A,,Mostly Cloudy,60,2013-01-23 22:20:00
10:50 PM,32.0,28.4,87,29.83,3.7,NE,6.9,-,N/A,,Mostly Cloudy,50,2013-01-23 22:50:00
11:20 PM,32.0,28.4,87,29.83,3.7,NE,6.9,-,N/A,,Mostly Cloudy,50,2013-01-23 23:20:00
11:50 PM,32.0,28.4,87,29.86,3.7,NNE,4.6,-,N/A,,Mostly Cloudy,30,2013-01-23 23:50:00